Malmstrom AFB, MT

4:09 PM MST on November 23, 2017 (GMT -0700)
Malmstrom AFB

Weather History for KGFA - April, 2014

Change the Weather History Date:

Monday, April 14, 2014

  Actual Average (KGTF) Record (KGTF)
Temperature  
Mean Temperature 42 °F -  
Max Temperature 60 °F 55 °F 79 °F (1963)
Min Temperature 24 °F 30 °F 3 °F (1986)
Degree Days  
Heating Degree Days 23    
Moisture  
Dew Point 15 °F    
Average Humidity 38    
Maximum Humidity 75    
Minimum Humidity 12    
Precipitation  
Precipitation 0.00 in - - ()
Sea Level Pressure  
Sea Level Pressure 30.18 in    
Wind  
Wind Speed 12 mph (SSW)    
Max Wind Speed 22 mph    
Max Gust Speed 28 mph    
Visibility 10 miles    
Events      
Averages and records for this station are not official NWS values.
T = Trace of Precipitation, MM = Missing Value Source: NWS Daily Summary

Daily Weather History Graph

Daily Weather History Graph

Search for Another Location

Airport or City:

Trip Planner

Search our weather history database for the weather conditions in past years. The results will help you decide how hot, cold, wet, or windy it might be!

Date:

Astronomy

Apr. 14, 2014 Rise Set
Actual Time 6:37 AM MDT 8:12 PM MDT
Civil Twilight 6:05 AM MDT 8:45 PM MDT
Nautical Twilight 5:26 AM MDT 9:24 PM MDT
Astronomical Twilight 4:44 AM MDT 10:07 PM MDT
Moon 7:54 PM MDT (4/14) 6:14 AM MDT (4/14)
Length of Visible Light 14h 39m
Length of Day
13h 35m
Full, 100% of the Moon is Illuminated
Apr 14
Full
Apr 15
Full
Apr 22
Last Quarter
Apr 29
New
May 6
First Quarter

Hourly Weather History & Observations

Time (MDT) Temp. Windchill Dew Point Humidity Pressure Visibility Wind Dir Wind Speed Gust Speed Precip Events Conditions
12:56 AM 24.1 °F 14.4 °F 17.1 °F 75% 30.45 in 10.0 mi South 9.2 mph - N/A   Clear
1:56 AM 26.1 °F 16.8 °F 17.1 °F 69% 30.42 in 10.0 mi South 9.2 mph - N/A   Clear
2:56 AM 25.0 °F 17.1 °F 16.0 °F 69% 30.38 in 10.0 mi SSW 6.9 mph - N/A   Clear
3:56 AM 30.0 °F 23.2 °F 15.1 °F 54% 30.36 in 10.0 mi SW 6.9 mph - N/A   Clear
4:56 AM 28.0 °F 17.5 °F 16.0 °F 61% 30.32 in 10.0 mi SSW 12.7 mph - N/A   Clear
5:56 AM 30.0 °F 21.1 °F 14.0 °F 51% 30.32 in 10.0 mi SW 10.4 mph - N/A   Clear
6:56 AM 28.9 °F 17.3 °F 15.1 °F 56% 30.32 in 10.0 mi SSW 16.1 mph - N/A   Clear
7:56 AM 34.0 °F 24.6 °F 16.0 °F 48% 30.30 in 10.0 mi SSW 13.8 mph - N/A   Clear
8:56 AM 39.0 °F 29.0 °F 16.0 °F 39% 30.28 in 10.0 mi SSW 20.7 mph - N/A   Clear
9:56 AM 43.0 °F 34.0 °F 16.0 °F 34% 30.26 in 10.0 mi SSW 21.9 mph - N/A   Clear
10:56 AM 46.9 °F - 16.0 °F 29% 30.25 in 10.0 mi SSW 16.1 mph - N/A   Clear
11:56 AM 48.9 °F - 17.1 °F 28% 30.23 in 10.0 mi SSW 12.7 mph 21.9 mph N/A   Clear
12:56 PM 52.0 °F - 14.0 °F 22% 30.19 in 10.0 mi WSW 9.2 mph 18.4 mph N/A   Clear
1:56 PM 54.0 °F - 16.0 °F 22% 30.17 in 10.0 mi SW 8.1 mph 21.9 mph N/A   Clear
2:56 PM 57.0 °F - 16.0 °F 20% 30.12 in 10.0 mi SW 19.6 mph 27.6 mph N/A   Clear
3:56 PM 57.9 °F - 16.0 °F 19% 30.08 in 10.0 mi SSW 13.8 mph - N/A   Clear
4:56 PM 59.0 °F - 10.9 °F 15% 30.04 in 10.0 mi WSW 13.8 mph 18.4 mph N/A   Clear
5:56 PM 60.1 °F - 7.0 °F 12% 30.01 in 10.0 mi WSW 16.1 mph - N/A   Clear
6:56 PM 59.0 °F - 9.0 °F 14% 30.00 in 10.0 mi SW 16.1 mph 21.9 mph N/A   Clear
7:56 PM 51.1 °F - 17.1 °F 26% 29.99 in 10.0 mi SSW 11.5 mph - N/A   Clear
8:56 PM 44.1 °F 38.1 °F 19.0 °F 37% 29.98 in 10.0 mi South 11.5 mph - N/A   Clear
9:56 PM 44.1 °F 39.0 °F 17.1 °F 34% 29.96 in 10.0 mi SSW 9.2 mph - N/A   Clear
10:56 PM 39.0 °F 32.3 °F 19.0 °F 45% 29.94 in 10.0 mi SSW 10.4 mph - N/A   Clear
11:56 PM 42.1 °F 36.6 °F 19.0 °F 40% 29.89 in 10.0 mi SSW 9.2 mph - N/A   Clear